THOR ABLESTAR DEB *, 18651

Orbit data source: Space-Track

THOR ABLESTAR DEB *, 18651 is space debris in LEO originally from a launch on Thu, 29 Jun 1961 UTC launched from the Air Force Eastern Test Range (AFETR). Debris objects in space refer to the collection of defunct objects orbiting the Earth. Examples of debris include non-operational satellites, rocket bodies, and fragments generated from explosions, collisions, or faulty payload assembly.

Loading next visibility...
Identifier
18651, 1961-015LW
Orbit
LEO
Country
Flag of USUS
Related business
Manufacturer
Unknown
Mission
Spacecraft
Bus & Motor
Unknown
Mass
Unknown
Launch date (UTC)
1961-06-29 (65 years ago)
Launch vehicle
Unknown
Launch site
Air Force Eastern Test Range (AFETR)
Object type
Payload
Rocket body
Debris
Shape & HBR
Unknown shape, 0.2 m
Radar Cross Section
Small (<0.1 m²)

Expand to show TLE details & history
Last TLE update: 3 days ago

TLE from 3 days ago
0 THOR ABLESTAR DEB *
1 18651U 61015LW  26124.57565411 -.00000047  00000-0  30057-4 0  9994
2 18651  65.7001 322.6105 0752419 295.7318  88.3706 12.40432484598897
Epoch: 2026-05-04T13:48Z
TLE epoch observation values (Epoch: 2026-05-04T13:48:56.515Z)
Latitude
29.56688°
Longitude
-92.31985°
Altitude
1,535.158 km
Speed
7.089 km/s
True Right ascension
22h 29m 30s
True Declination
29° 26' 02"
Sunlit
Object was in daylight at epoch
Visualization orbit readout
Latitude
Unknown
Longitude
Unknown
Altitude
Unknown
Speed
Unknown
Apparent Right ascension
Unknown
Apparent Declination
Unknown
Sunlit
N/A
Visualization observer readout
Local Sidereal Time
12:46:43
Azimuth
Unknown
Elevation
Unknown
Doppler factor
Unknown
Orbital elements
Apogee altitude
2,096.41 km
Perigee altitude
910.368 km
Semi-major axis
7,881.526 km
Eccentricity
0.07524
Inclination
65.7001°
RAAN
322.6105°
Arg. of periapsis
295.7318°
True anomaly
96.97979°
Mean anomaly
88.3706°
Eccentric anomaly
92.67694°
Mean motion
3.1019 °/min
Orbital period
116.06 mins
BSTAR
0.000030057
Loading maneuver chart data...
Computing Atmospheric mass density...

Documentation

Showing up to 5 results
|